Temp
11 11 11 11 11 12 12 13 12 13 13 13 13 13 13 14 14 14 14 14 14 15 15 15 15 15 15 16 16 15 15 15 15 15 15 15 15 16 15 15 14 14 15
12 11 11 11 11 11 12 13 13 13 13 13 13 14 14 14 13 14 14 14 14 14 14 14 14 15 15 15 15 16 15 15 14 15 15 15 15 15 15 16 16 14 15
10 11 11 11 11 11 11 13 12 13 13 13 12 13 13 14 14 13 13 14 14 15 16 15 15 14 15 14 15 16 15 15 15 14 15 13 14 15 15 15 16 16 15
10 10 10 10 10 11 12 12 12 12 13 13 13 11 13 13 14 14 14 15 13 15 14 15 15 15 15 15 15 15 15 15 15 15 13 13 13 15 15 15 15 15 15
9 9 9 9 9 10 11 12 11 12 13 13 13 13 12 12 14 14 14 14 14 14 14 15 13 14 14 14 15 15 15 15 15 15 13 13 13 15 15 14 15 15 15
8 9 9 9 9 9 9 11 12 12 12 12 13 13 13 13 14 14 14 14 14 14 14 14 14 13 12 13 13 14 14 15 14 14 13 13 13 14 14 14 14 15 15
8 8 8 8 9 8 8 9 11 11 11 12 12 13 13 13 13 13 14 14 14 14 14 14 14 14 13 13 13 13 13 14 14 14 13 14 14 14 14 14 14 14 15
7 8 8 8 8 8 8 8 9 10 10 11 12 12 13 14 13 13 14 14 14 14 14 13 14 13 13 13 13 13 13 13 14 14 14 14 14 13 14 14 14 14 14
7 7 7 7 7 7 7 7 7 7 10 10 11 12 13 13 13 13 13 14 14 14 14 14 13 13 13 13 13 13 12 13 13 14 14 14 14 13 13 13 14 14 14
6 7 7 7 6 6 6 6 7 8 10 11 12 12 12 12 12 12 13 13 13 13 14 14 13 13 13 13 13 13 12 12 12 13 13 14 14 14 14 13 14 14 14
6 6 6 6 6 6 6 6 8 9 10 10 9 9 10 10 11 11 11 12 12 12 13 13 13 13 13 13 12 12 12 12 12 12 12 13 14 13 13 13 13 14 14
5 5 5 5 6 6 6 7 8 8 8 8 8 8 9 9 10 10 10 11 11 11 11 11 12 11 12 12 12 12 11 11 11 11 12 13 13 13 13 13 13 13 13
5 5 5 5 5 5 5 6 6 7 8 7 7 8 8 8 8 9 9 9 9 10 10 10 11 11 11 11 11 11 11 11 11 10 11 11 12 12 12 12 12 12 12
3 4 4 4 4 4 4 5 5 6 6 6 7 7 7 7 7 8 8 8 8 8 8 9 9 9 9 10 10 10 10 10 10 10 10 10 11 11 11 11 12 12 12
3 3 4 4 4 4 4 4 5 5 5 5 6 6 6 6 6 6 7 7 7 7 8 8 8 8 8 8 9 9 9 9 9 9 9 10 9 8 9 9 10 10 10
4 4 3 3 3 3 4 4 4 4 4 4 5 5 5 5 6 6 5 6 6 6 7 7 7 7 7 7 7 7 8 8 8 8 8 8 9 10 9 9 10 10 10
4 4 3 3 3 3 3 3 3 4 4 4 4 4 4 5 5 5 5 5 5 5 5 5 6 6 6 6 6 6 6 7 7 7 7 7 7 8 10 9 9 9 10
4 4 3 2 2 2 2 2 2 3 3 3 3 3 3 4 4 4 4 5 5 5 5 4 4 4 5 5 6 6 6 5 5 5 5 5 6 6 7 8 8 8 9
4 4 3 2 2 2 1 1 2 2 2 2 2 2 3 3 3 3 3 3 3 3 3 3 3 3 3 3 3 3 4 4 4 3 3 4 4 5 5 6 6 7 7
3 2 2 2 1 1 1 1 1 1 1 1 1 1 1 2 2 2 2 2 2 2 1 2 2 2 2 2 2 2 2 2 2 2 2 2 3 3 4 4 4 5 5
1 1 1 1 1 1 0 0 0 1 0 0 0 0 0 1 1 1 1 1 1 1 1 0 0 0 1 1 -1 -1 -1 -0 -0 0 1 1 2 2 2 3 3 4 4
0 -0 -0 0 0 -0 0 -0 -0 -0 -1 -0 0 0 -0 -0 -0 -0 -0 -0 -0 0 0 0 -0 -0 -0 -0 -2 -2 -2 -3 -2 -1 -1 -1 -0 0 1 2 2 3 3
-2 -2 -2 -0 -0 -1 -1 -1 -1 -1 -1 -1 -1 -1 -1 -1 -2 -1 -1 -1 -1 -1 -1 -1 -1 -1 -1 -1 -1 -2 -1 1 -3 -2 -2 -2 -1 -1 -1 0 1 1 2
-3 -3 -4 -2 -1 -1 -1 -1 -0 -0 -1 -1 -1 -2 -2 -2 -3 -3 -3 -3 -3 -3 -2 -2 -2 -2 -2 -2 -2 -2 -2 -2 -3 -2 -3 -3 -2 -2 -1 -1 -1 0 1
-4 -4 -5 -2 -1 -1 -1 -1 -1 -1 -2 -2 -2 -3 -3 -3 -3 -4 -4 -4 -4 -4 -4 -4 -3 -3 -3 -4 -3 -3 -3 -3 -3 -4 -2 -3 -4 -3 -2 -2 -2 -1 -1
-5 -5 -4 -2 -2 -1 -1 -2 -2 -2 -1 -2 -2 -3 -3 -4 -4 -4 -5 -5 -5 -5 -5 -5 -5 -4 -4 -4 -4 -4 -4 -6 -6 -6 -5 -5 -5 -4 -2 -2 -3 -3 -2
Height
1512 1516 1520 1523 1526 1528 1530 1531 1532 1533 1534 1536 1536 1536 1537 1537 1538 1539 1540 1541 1541 1541 1541 1542 1543 1543 1543 1543 1543 1544 1544 1545 1546 1546 1546 1547 1547 1548 1548 1549 1550 1549 1549
1510 1515 1519 1522 1525 1527 1529 1530 1531 1533 1534 1534 1536 1536 1538 1537 1539 1538 1540 1542 1542 1542 1541 1542 1543 1544 1544 1544 1544 1545 1546 1546 1547 1548 1549 1549 1549 1550 1550 1550 1551 1551 1551
1509 1513 1517 1521 1522 1525 1527 1529 1530 1531 1533 1534 1534 1536 1537 1538 1538 1538 1539 1540 1541 1540 1541 1543 1544 1545 1544 1544 1546 1546 1547 1548 1548 1550 1550 1552 1551 1551 1551 1551 1552 1552 1552
1508 1513 1517 1518 1520 1523 1526 1527 1529 1530 1531 1534 1535 1537 1536 1537 1538 1539 1539 1539 1541 1541 1543 1544 1544 1545 1544 1545 1546 1547 1548 1549 1550 1551 1553 1553 1553 1552 1553 1553 1553 1553 1554
1507 1512 1516 1518 1520 1522 1524 1526 1529 1530 1531 1533 1535 1534 1535 1536 1537 1537 1538 1539 1541 1541 1542 1543 1544 1545 1545 1546 1546 1548 1548 1548 1551 1552 1552 1554 1555 1553 1553 1554 1554 1554 1555
1506 1511 1515 1518 1520 1522 1523 1525 1528 1530 1531 1533 1534 1534 1536 1537 1537 1538 1539 1540 1540 1540 1541 1542 1544 1545 1545 1546 1546 1547 1549 1549 1550 1553 1554 1553 1555 1555 1554 1555 1555 1556 1555
1506 1511 1514 1517 1519 1521 1523 1523 1526 1529 1530 1532 1533 1534 1536 1537 1536 1537 1537 1538 1539 1540 1539 1542 1543 1545 1545 1546 1546 1547 1548 1550 1551 1552 1554 1554 1554 1556 1556 1556 1556 1556 1556
1504 1509 1513 1516 1518 1520 1522 1522 1524 1526 1528 1529 1531 1532 1533 1533 1535 1536 1537 1537 1537 1540 1540 1541 1543 1545 1544 1544 1546 1546 1547 1550 1550 1551 1553 1554 1554 1555 1557 1557 1556 1557 1557
1503 1507 1510 1513 1516 1519 1520 1521 1522 1523 1525 1526 1528 1528 1530 1532 1534 1534 1535 1535 1537 1538 1539 1540 1543 1543 1542 1544 1546 1546 1547 1549 1550 1550 1552 1554 1553 1554 1556 1557 1557 1558 1558
1502 1505 1508 1510 1512 1515 1517 1519 1519 1521 1523 1524 1526 1528 1529 1531 1532 1533 1534 1533 1534 1535 1536 1539 1541 1540 1543 1544 1544 1544 1547 1547 1550 1551 1550 1552 1552 1554 1555 1556 1556 1557 1558
1499 1503 1505 1507 1509 1512 1515 1516 1518 1520 1523 1526 1526 1527 1529 1530 1530 1530 1531 1533 1533 1534 1534 1536 1537 1537 1540 1542 1543 1545 1545 1546 1548 1549 1549 1550 1552 1553 1554 1555 1557 1557 1558
1494 1498 1502 1505 1507 1509 1513 1514 1517 1519 1520 1522 1525 1527 1528 1529 1530 1530 1530 1531 1531 1532 1533 1534 1535 1537 1537 1538 1539 1542 1543 1545 1546 1548 1548 1549 1551 1552 1554 1555 1556 1557 1557
1491 1495 1499 1502 1505 1508 1511 1513 1515 1517 1519 1521 1523 1525 1526 1528 1529 1530 1531 1531 1531 1532 1533 1533 1533 1533 1533 1535 1537 1538 1540 1543 1544 1546 1546 1548 1550 1551 1553 1554 1555 1556 1557
1486 1492 1495 1498 1502 1505 1508 1510 1513 1515 1517 1519 1521 1523 1525 1526 1527 1528 1529 1530 1531 1531 1531 1530 1531 1532 1533 1533 1534 1536 1539 1540 1542 1543 1544 1545 1548 1549 1551 1552 1555 1555 1556
1483 1486 1491 1494 1498 1502 1506 1509 1511 1514 1516 1517 1519 1521 1523 1524 1526 1527 1528 1529 1529 1529 1529 1530 1530 1530 1531 1532 1533 1535 1536 1537 1539 1539 1541 1542 1545 1545 1547 1548 1551 1552 1552
1478 1481 1486 1490 1495 1499 1503 1507 1509 1511 1514 1516 1517 1519 1521 1523 1525 1526 1527 1528 1528 1528 1528 1528 1528 1529 1530 1531 1532 1533 1535 1535 1534 1536 1537 1540 1539 1541 1543 1545 1546 1546 1548
1474 1478 1482 1487 1492 1496 1501 1504 1507 1510 1512 1515 1517 1519 1521 1523 1523 1524 1524 1525 1525 1526 1526 1527 1528 1528 1529 1529 1530 1531 1531 1531 1532 1533 1536 1537 1537 1538 1541 1541 1541 1544 1546
1470 1473 1479 1484 1489 1493 1497 1501 1505 1508 1511 1513 1516 1517 1519 1521 1522 1524 1525 1526 1526 1526 1525 1525 1525 1526 1527 1528 1528 1528 1528 1530 1529 1531 1534 1534 1534 1535 1537 1538 1539 1541 1542
1464 1470 1475 1480 1486 1490 1495 1499 1503 1506 1510 1512 1514 1515 1517 1518 1520 1521 1522 1523 1524 1524 1524 1524 1525 1525 1524 1526 1527 1527 1528 1528 1529 1530 1531 1531 1532 1532 1533 1534 1534 1536 1538
1462 1466 1471 1477 1482 1486 1491 1496 1499 1503 1507 1510 1512 1514 1516 1517 1519 1520 1521 1522 1522 1522 1523 1523 1524 1524 1524 1524 1525 1526 1526 1527 1528 1528 1529 1529 1530 1530 1531 1532 1532 1533 1534
1458 1463 1467 1472 1477 1482 1486 1490 1495 1499 1503 1506 1509 1512 1515 1516 1518 1519 1520 1521 1522 1522 1522 1522 1523 1523 1523 1523 1524 1525 1526 1526 1526 1527 1527 1528 1528 1529 1529 1529 1530 1530 1531
1450 1457 1463 1470 1475 1481 1486 1491 1495 1498 1501 1504 1507 1510 1513 1515 1516 1517 1518 1520 1521 1522 1522 1522 1522 1522 1522 1522 1524 1525 1527 1528 1525 1524 1525 1525 1525 1526 1527 1527 1527 1528 1528
1449 1453 1459 1464 1471 1479 1484 1488 1493 1497 1500 1502 1504 1506 1509 1512 1514 1515 1516 1518 1519 1520 1521 1520 1521 1522 1522 1522 1522 1523 1525 1525 1525 1523 1522 1523 1524 1524 1524 1523 1524 1525 1526
1447 1453 1459 1463 1469 1476 1481 1486 1491 1495 1499 1502 1504 1505 1507 1510 1512 1514 1515 1516 1517 1518 1519 1520 1520 1520 1521 1522 1522 1521 1521 1522 1524 1525 1521 1521 1521 1521 1521 1521 1522 1522 1523
1447 1451 1457 1462 1469 1474 1479 1485 1490 1493 1497 1501 1504 1505 1506 1508 1510 1512 1514 1515 1516 1517 1518 1519 1519 1519 1520 1521 1521 1521 1521 1521 1522 1523 1524 1524 1521 1521 1520 1520 1520 1519 1520
1445 1449 1453 1460 1467 1473 1478 1483 1488 1491 1494 1497 1502 1505 1506 1507 1508 1510 1512 1514 1515 1516 1516 1517 1517 1518 1518 1519 1519 1519 1519 1521 1522 1522 1523 1522 1520 1519 1518 1517 1517 1517 1517
Wind_Speed
26 28 25 23 20 19 15 16 16 15 15 13 13 14 14 15 16 17 15 13 11 10 11 11 10 10 10 12 13 13 13 13 13 14 14 14 15 13 13 13 14 12 10
28 29 25 19 23 18 16 17 14 10 9 10 9 11 11 13 14 14 15 15 16 16 15 13 11 10 10 8 10 12 12 13 13 12 11 11 11 12 12 10 9 10 9
30 29 27 22 21 21 19 20 18 13 9 9 8 8 9 8 11 14 15 15 14 14 12 13 14 13 12 9 8 10 10 11 12 10 9 10 9 8 9 10 9 8 7
31 28 26 24 24 26 23 24 19 14 12 10 9 8 9 10 10 9 10 11 12 10 11 9 7 10 9 8 8 9 10 10 10 11 8 8 8 8 8 8 8 8 7
31 29 25 21 24 23 24 23 20 16 12 11 13 13 12 12 13 11 10 9 8 6 7 9 10 9 9 7 7 9 9 10 8 8 9 9 7 9 9 9 7 8 8
31 29 25 22 18 18 17 21 19 16 11 9 11 11 11 11 10 10 11 10 9 8 8 8 7 8 8 6 8 9 8 9 9 7 10 9 8 9 9 8 8 8 9
31 28 23 19 18 17 17 18 18 14 10 14 12 12 11 9 7 8 8 9 10 9 9 10 8 7 6 10 10 10 10 10 9 8 9 9 8 8 6 7 8 8 9
30 30 25 20 20 19 18 16 15 15 14 16 15 14 12 10 8 7 8 8 8 9 8 8 8 9 7 8 9 10 12 12 12 11 10 9 10 8 6 6 7 8 8
30 30 29 25 21 20 19 17 16 16 19 20 18 16 14 12 10 10 10 9 9 9 10 9 9 8 6 8 10 10 12 13 12 11 10 10 10 10 8 7 6 6 7
31 31 31 28 25 25 23 20 20 21 21 21 18 16 13 11 11 12 12 12 12 11 11 12 11 9 8 8 9 12 14 13 13 14 13 14 14 12 11 9 8 7 7
33 32 31 31 29 25 22 22 22 20 17 14 13 12 11 10 10 10 9 10 11 12 12 13 12 12 11 9 10 13 14 16 16 15 14 15 15 14 13 12 9 7 6
38 36 33 31 30 28 24 20 17 15 15 14 13 13 12 10 10 10 9 8 9 10 11 12 12 12 11 10 11 14 15 16 17 16 15 15 15 14 14 12 11 10 9
39 38 36 34 31 28 24 20 18 17 15 14 12 11 10 9 9 8 8 7 7 9 9 9 10 10 10 11 12 14 16 16 17 17 17 17 15 15 14 14 13 11 12
36 40 39 36 32 28 25 22 18 15 14 13 12 11 10 8 8 7 7 6 6 6 6 7 7 7 7 9 11 14 15 15 17 17 16 17 16 15 14 14 13 13 12
34 38 39 37 35 31 26 22 18 16 15 13 12 11 10 9 7 6 5 5 5 6 6 6 6 7 6 7 9 11 13 14 15 16 16 17 18 15 11 10 9 9 8
36 39 39 38 35 31 27 23 20 18 16 14 12 11 9 8 7 6 6 5 5 5 5 6 7 6 6 7 8 9 10 12 12 15 16 17 21 24 24 21 20 19 18
36 38 39 37 34 31 27 24 21 19 17 15 12 10 9 7 6 4 4 4 4 3 3 5 6 7 7 6 6 8 9 10 11 12 14 16 15 19 23 26 27 25 23
35 39 38 37 35 32 28 25 23 20 18 16 13 11 9 8 6 6 6 6 5 5 5 4 3 4 5 7 7 7 8 9 10 11 13 14 15 15 16 19 21 24 26
36 37 39 38 35 32 29 26 23 21 18 16 13 11 9 8 6 5 4 4 3 3 3 3 4 4 4 4 5 7 8 9 9 9 11 11 12 13 14 14 16 18 20
34 36 38 38 36 34 31 27 25 22 19 16 14 12 10 8 7 5 4 4 3 2 2 2 2 3 4 4 4 5 7 8 10 10 9 9 9 10 11 12 12 12 14
31 35 39 39 37 36 34 31 28 25 22 19 16 14 12 11 9 7 6 5 4 4 3 2 1 1 1 4 4 3 4 6 7 9 10 9 9 9 9 10 11 11 12
32 35 37 38 37 36 32 29 26 24 22 19 17 15 12 10 9 7 6 5 5 4 4 4 3 2 2 2 5 5 4 4 7 9 8 8 7 7 8 9 10 10 11
28 33 37 39 38 35 32 29 25 24 22 21 19 17 14 11 8 6 5 5 4 4 3 3 2 2 2 2 3 5 3 3 2 6 9 10 9 7 8 8 9 10 11
25 27 31 36 37 35 32 29 26 24 22 20 18 16 13 10 7 6 5 4 3 3 2 2 2 1 1 2 2 3 4 4 1 2 5 6 7 7 8 9 10 10 10
21 25 30 35 35 34 32 28 26 22 19 17 17 15 13 10 8 6 5 4 3 3 3 2 2 2 2 2 2 3 4 5 6 3 4 4 7 9 9 9 10 10 10
21 24 30 35 34 32 30 28 26 22 20 19 18 16 14 11 9 7 6 5 4 4 3 3 3 3 4 4 5 5 5 3 3 3 5 7 9 10 9 10 9 10 11
Wind_Direction
178 175 178 169 165 163 152 156 154 151 137 132 130 132 135 132 127 121 132 131 131 135 127 121 114 107 105 113 118 123 128 122 118 117 111 105 106 104 104 102 82 100 110
179 178 181 172 176 160 163 175 176 181 156 145 149 160 165 149 141 145 131 131 123 126 130 132 135 131 123 119 125 127 131 129 125 120 113 106 106 104 104 109 114 108 115
175 179 176 181 173 170 179 193 203 196 190 183 167 173 172 177 169 159 157 163 168 161 154 154 153 155 151 138 144 132 132 133 130 123 114 102 107 104 101 104 110 120 103
175 175 176 184 187 194 192 201 202 198 199 206 208 191 191 187 191 189 181 181 183 184 172 193 180 162 169 161 152 138 131 125 125 122 98 105 105 112 106 103 104 112 114
177 179 179 188 202 201 200 206 210 206 214 227 215 209 202 202 208 208 219 223 218 218 214 197 197 194 185 183 152 150 145 139 133 123 98 108 106 118 116 109 99 104 111
180 179 182 192 194 189 180 208 208 208 210 226 211 208 208 208 214 217 218 231 237 230 235 235 226 196 184 184 175 161 167 155 149 141 103 123 126 122 116 120 112 105 119
177 177 186 194 180 174 156 193 201 198 206 218 210 207 215 217 214 221 232 235 238 233 232 244 243 224 202 188 178 179 175 173 166 158 128 138 136 135 130 133 134 119 119
183 186 182 188 186 173 159 162 190 193 203 209 196 194 204 215 219 226 236 241 250 250 242 242 240 237 206 208 209 195 182 184 176 176 164 154 140 139 167 161 152 153 138
185 188 182 178 182 178 163 165 172 193 201 199 192 195 208 218 225 235 241 245 246 255 260 259 249 245 221 212 208 197 190 188 191 184 183 187 180 169 155 145 170 175 174
189 190 187 184 182 175 178 177 204 211 207 201 203 205 207 214 226 231 237 242 251 250 253 257 258 251 229 214 210 200 199 198 201 205 194 206 207 200 193 178 169 181 188
190 193 192 191 195 193 197 199 214 217 213 205 188 192 202 212 219 226 229 237 246 254 255 256 256 254 249 230 211 208 207 209 208 210 212 217 217 212 207 205 201 197 195
192 192 195 197 204 209 209 209 207 196 195 197 197 200 213 215 217 227 232 233 244 254 257 258 254 246 246 232 221 213 213 214 216 217 218 223 224 221 218 219 215 216 215
193 195 195 199 207 208 207 205 200 197 200 200 201 202 205 207 212 218 230 238 233 238 247 253 255 249 234 226 219 219 219 219 217 219 226 227 230 228 227 227 222 228 231
196 199 201 203 206 206 206 204 203 200 197 196 196 198 200 205 212 217 225 231 243 253 240 239 249 246 238 228 222 219 220 220 219 218 224 224 226 231 235 229 227 228 237
199 200 203 204 206 208 207 205 203 202 200 198 199 199 202 206 210 216 220 224 235 245 259 259 241 242 240 230 229 225 221 218 217 217 221 223 221 200 172 166 168 205 193
203 205 204 205 206 207 208 207 205 203 202 202 202 205 208 212 219 221 215 209 209 224 247 259 271 265 243 233 227 225 226 224 219 218 219 222 220 220 218 216 210 187 192
206 206 206 206 207 207 208 209 207 207 205 204 204 204 205 212 223 246 278 297 290 255 220 220 229 247 259 249 233 226 221 221 223 223 221 223 225 232 231 227 225 221 223
207 208 207 206 206 206 207 206 204 202 201 201 201 201 201 204 208 217 224 231 241 257 270 268 247 229 228 234 236 232 229 223 215 214 218 220 223 230 235 231 236 235 230
211 208 206 206 205 205 203 203 201 199 198 198 199 202 204 207 214 221 227 226 218 223 225 224 235 240 236 221 210 207 206 210 211 211 215 218 224 230 236 241 238 239 237
208 206 207 205 203 202 200 198 196 194 194 194 196 198 200 201 206 215 228 244 256 256 245 232 214 205 217 219 214 203 199 201 206 210 216 221 224 227 233 240 245 245 246
204 203 204 203 201 200 197 195 194 193 193 193 193 193 194 195 197 201 206 213 222 236 249 263 241 176 208 184 167 177 216 217 214 212 215 219 227 237 242 245 246 247 250
200 199 201 202 201 199 198 195 194 192 190 194 194 194 196 197 196 195 198 201 205 211 216 214 210 192 209 185 182 177 203 241 237 230 232 231 235 244 248 251 255 253 252
195 195 197 199 200 198 195 194 193 193 193 191 191 192 192 194 199 199 200 203 208 212 215 225 232 205 182 217 204 182 211 214 198 247 235 235 236 253 271 271 265 261 258
192 192 193 197 196 196 199 199 200 198 195 196 195 192 191 194 199 203 207 209 215 228 238 252 271 277 223 219 230 230 227 227 230 253 274 245 243 262 276 277 275 267 257
185 186 190 195 197 198 198 200 196 196 196 198 195 192 193 195 200 205 207 212 222 238 251 256 261 273 283 282 265 262 258 257 254 253 260 269 286 274 275 278 275 272 266
188 190 192 195 198 200 200 199 201 202 202 198 199 198 197 198 201 205 210 217 225 238 250 262 271 275 279 281 282 274 260 255 279 271 283 291 287 278 273 276 272 265 269